Find Starlink 36062

NORAD ID: 66794 Int'l Des: 2025-278 Owner: SPXS Country: US Constellation: starlink operational
LEOCIRCULAR

当前视图

正在加载3D地球...

关于 Starlink 36062

正在加载描述...

即将过境

Passes for default location (London). Set your location on the main map for personalized predictions.

高度历史

Loading altitude history...

两行轨道根数

1 66794U 25278D 26146.08728036 .00009386 00000-0 35009-3 0 9995
2 66794 43.0041 37.4785 0001502 251.0824 108.9865 15.27586512 27042
Epoch: May 26, 2026 • Age: 12 hours

当前状态

高度 482.3 km
速度 7.63 km/s
星下点 16.72°N, 105.57°E
发射日期 Dec 1, 2025
运行时间 0.4 years
类型 internet

技术详情

分类 Payload
质量 575.00 kg
干质量 530.00 kg
总质量 575.00 kg
长度 0.30 m
直径 4.10 m
跨度 29.00 m
形状 Box + pan
制造商 SPXS
平台类型 Starlink V2MO
阶段状态 In Orbit
所有者/国家 SPXS/US

Most Searched